TimeMST,TemperatureF,Dew PointF,Humidity,Sea Level PressureIn,VisibilityMPH,Wind Direction,Wind SpeedMPH,Gust SpeedMPH,PrecipitationIn,Events,Conditions,WindDirDegrees,DateUTC
12:53 AM,43.0,41.0,93,29.89,8.0,ENE,5.8,-,0.08,Rain,Light Rain,70,2012-11-09 07:53:00
1:53 AM,39.9,39.9,100,29.88,7.0,ENE,9.2,-,0.06,Rain,Light Rain,70,2012-11-09 08:53:00
2:15 AM,41.0,41.0,100,30.00,6.0,ENE,8.1,-,0.02,Rain,Rain,60,2012-11-09 09:15:00
2:53 AM,41.0,41.0,100,29.88,4.0,NE,6.9,-,0.05,Rain,Rain,50,2012-11-09 09:53:00
3:16 AM,41.0,41.0,100,30.01,4.0,NNE,3.5,-,0.05,Rain,Rain,30,2012-11-09 10:16:00
3:44 AM,41.0,41.0,100,30.00,5.0,ENE,4.6,-,0.10,Rain,Light Rain,60,2012-11-09 10:44:00
3:53 AM,41.0,41.0,100,29.87,6.0,NE,9.2,-,0.11,Rain,Light Rain,50,2012-11-09 10:53:00
4:07 AM,41.0,41.0,100,30.00,10.0,ENE,4.6,-,0.01,Rain,Light Rain,60,2012-11-09 11:07:00
4:17 AM,41.0,41.0,100,30.01,8.0,East,3.5,-,0.02,Rain,Light Rain,90,2012-11-09 11:17:00
4:21 AM,41.0,41.0,100,30.01,7.0,Calm,Calm,-,0.02,Rain,Light Rain,0,2012-11-09 11:21:00
4:53 AM,39.9,39.9,100,29.91,7.0,ENE,6.9,-,0.07,Rain,Light Rain,60,2012-11-09 11:53:00
5:53 AM,39.9,39.9,100,29.95,10.0,East,6.9,-,0.00,,Overcast,80,2012-11-09 12:53:00
6:08 AM,39.2,39.2,100,30.01,10.0,East,6.9,-,N/A,,Overcast,90,2012-11-09 13:08:00
6:53 AM,39.0,37.9,96,29.95,10.0,ESE,4.6,-,N/A,,Overcast,110,2012-11-09 13:53:00
7:38 AM,39.2,37.4,93,30.02,5.0,NE,4.6,-,0.03,Rain,Rain,50,2012-11-09 14:38:00
7:53 AM,39.9,39.0,97,29.98,10.0,East,3.5,-,0.04,Rain,Light Rain,80,2012-11-09 14:53:00
8:53 AM,42.1,39.9,92,29.97,10.0,East,5.8,-,0.00,,Overcast,100,2012-11-09 15:53:00
9:00 AM,42.8,39.2,87,30.01,10.0,ENE,5.8,-,N/A,,Overcast,70,2012-11-09 16:00:00
9:17 AM,42.8,39.2,87,30.01,10.0,ENE,6.9,-,N/A,,Overcast,70,2012-11-09 16:17:00
9:53 AM,44.1,41.0,89,29.94,10.0,East,6.9,-,N/A,,Overcast,100,2012-11-09 16:53:00
10:00 AM,44.6,42.8,93,29.99,10.0,ESE,5.8,-,N/A,,Overcast,110,2012-11-09 17:00:00
10:32 AM,46.4,41.0,81,29.99,10.0,East,10.4,-,N/A,,Mostly Cloudy,90,2012-11-09 17:32:00
10:53 AM,46.9,41.0,80,29.89,10.0,ENE,5.8,-,N/A,,Overcast,70,2012-11-09 17:53:00
11:33 AM,46.4,42.8,87,29.95,3.0,Calm,Calm,-,0.01,Rain,Rain,0,2012-11-09 18:33:00
11:53 AM,48.9,42.1,77,29.83,10.0,Calm,Calm,-,0.03,,Overcast,0,2012-11-09 18:53:00
12:53 PM,54.0,42.1,64,29.76,10.0,SSW,18.4,24.2,N/A,,Scattered Clouds,210,2012-11-09 19:53:00
1:53 PM,48.9,39.0,69,29.75,10.0,WSW,4.6,-,0.00,,Overcast,240,2012-11-09 20:53:00
2:17 PM,46.4,42.8,87,29.83,3.0,North,-9999.0,-,0.00,Rain-Thunderstorm,Rain,0,2012-11-09 21:17:00
2:21 PM,46.4,42.8,87,29.84,1.8,North,-9999.0,-,0.01,Rain-Thunderstorm,Heavy Rain,0,2012-11-09 21:21:00
2:26 PM,44.6,42.8,93,29.84,1.0,North,-9999.0,-,0.05,Rain,Heavy Rain,0,2012-11-09 21:26:00
2:44 PM,42.8,39.2,87,29.83,2.0,North,-9999.0,-,0.18,Rain-Thunderstorm,Light Rain,0,2012-11-09 21:44:00
2:53 PM,42.1,41.0,96,29.78,3.0,Calm,Calm,-,0.21,Rain-Thunderstorm,Rain,0,2012-11-09 21:53:00
3:18 PM,44.6,42.8,93,29.84,2.0,West,15.0,21.9,0.04,Rain-Thunderstorm,Rain,260,2012-11-09 22:18:00
3:29 PM,44.6,42.8,93,29.83,6.0,SW,9.2,19.6,0.06,Rain,Light Rain,220,2012-11-09 22:29:00
3:53 PM,45.0,43.0,93,29.77,6.0,SW,4.6,-,0.09,Rain,Light Rain,230,2012-11-09 22:53:00
4:31 PM,44.6,42.8,93,29.81,10.0,NNE,3.5,-,0.02,Thunderstorm,Overcast,30,2012-11-09 23:31:00
4:53 PM,44.1,44.1,100,29.77,10.0,Calm,Calm,-,0.04,Thunderstorm,Overcast,0,2012-11-09 23:53:00
5:15 PM,44.6,42.8,93,29.82,10.0,NE,4.6,-,N/A,,Scattered Clouds,50,2012-11-10 00:15:00
5:53 PM,43.0,42.1,97,29.78,10.0,NE,6.9,-,0.02,,Mostly Cloudy,50,2012-11-10 00:53:00
6:53 PM,43.0,41.0,93,29.79,10.0,ENE,5.8,-,0.01,,Mostly Cloudy,70,2012-11-10 01:53:00
7:53 PM,42.1,39.9,92,29.78,10.0,Variable,3.5,-,0.02,,Partly Cloudy,0,2012-11-10 02:53:00
8:53 PM,43.0,34.0,71,29.77,10.0,South,8.1,-,0.01,,Partly Cloudy,190,2012-11-10 03:53:00
9:53 PM,44.1,35.1,71,29.76,10.0,South,8.1,19.6,N/A,,Partly Cloudy,190,2012-11-10 04:53:00
10:53 PM,44.1,36.0,73,29.73,10.0,SSE,5.8,-,0.01,,Overcast,150,2012-11-10 05:53:00
11:53 PM,42.1,36.0,79,29.69,10.0,SSE,8.1,-,N/A,,Mostly Cloudy,150,2012-11-10 06:53:00